Time,TemperatureF,DewpointF,PressureIn,WindDirection,WindDirectionDegrees,WindSpeedMPH,WindSpeedGustMPH,Humidity,HourlyPrecipIn,Conditions,Clouds,dailyrainin,SolarRadiationWatts/m^2,SoftwareType,DateUTC
2013-02-20 00:11:00,25.0,21.0,-100.00,North,1,3.0,5.0,84,0.00,,,0.00,1.000000,,2013-02-20 08:11:00,
2013-02-20 00:21:00,25.0,21.0,-100.00,North,1,3.0,5.0,84,0.00,,,0.00,1.000000,,2013-02-20 08:21:00,
2013-02-20 00:42:00,24.0,21.0,-100.00,ESE,116,0.0,4.0,87,0.00,,,0.00,1.000000,,2013-02-20 08:42:00,
2013-02-20 00:52:00,24.0,21.0,-100.00,ESE,116,0.0,4.0,87,0.00,,,0.00,1.000000,,2013-02-20 08:52:00,
2013-02-20 01:01:00,24.0,21.0,-100.00,ESE,116,0.0,4.0,87,0.00,,,0.00,1.000000,,2013-02-20 09:01:00,
2013-02-20 01:11:00,24.0,21.0,-100.00,ESE,116,0.0,4.0,87,0.00,,,0.00,1.000000,,2013-02-20 09:11:00,
2013-02-20 01:21:00,24.0,21.0,-100.00,ESE,116,0.0,4.0,87,0.00,,,0.00,1.000000,,2013-02-20 09:21:00,
2013-02-20 01:52:00,24.0,21.0,-100.00,SE,130,0.0,2.0,88,0.00,,,0.00,1.000000,,2013-02-20 09:52:00,
2013-02-20 02:01:00,24.0,21.0,-100.00,SE,130,0.0,2.0,88,0.00,,,0.00,1.000000,,2013-02-20 10:01:00,
2013-02-20 02:12:00,24.0,21.0,-100.00,SE,130,0.0,2.0,88,0.00,,,0.00,1.000000,,2013-02-20 10:12:00,
2013-02-20 02:21:00,24.0,21.0,-100.00,SE,130,0.0,2.0,88,0.00,,,0.00,1.000000,,2013-02-20 10:21:00,
2013-02-20 02:52:00,24.0,21.0,-100.00,ENE,64,1.0,2.0,88,-99.99,,,0.00,1.000000,,2013-02-20 10:52:00,
2013-02-20 03:02:00,24.0,21.0,-100.00,ENE,64,1.0,2.0,88,-99.99,,,0.00,1.000000,,2013-02-20 11:02:00,
2013-02-20 03:52:00,24.0,20.0,-100.00,East,92,1.0,3.0,86,-99.99,,,0.00,1.000000,,2013-02-20 11:52:00,
2013-02-20 04:01:00,24.0,20.0,-100.00,East,92,1.0,3.0,86,-99.99,,,0.00,1.000000,,2013-02-20 12:01:00,
2013-02-20 04:12:00,24.0,20.0,-100.00,East,92,1.0,3.0,86,-99.99,,,0.00,1.000000,,2013-02-20 12:12:00,
2013-02-20 04:21:00,24.0,20.0,-100.00,East,92,1.0,3.0,86,-99.99,,,0.00,1.000000,,2013-02-20 12:21:00,
2013-02-20 04:53:00,23.0,19.0,-100.00,NNE,32,0.0,3.0,85,0.00,,,0.00,1.000000,,2013-02-20 12:53:00,
2013-02-20 05:01:00,23.0,19.0,-100.00,NNE,32,0.0,3.0,85,0.00,,,0.00,1.000000,,2013-02-20 13:01:00,
2013-02-20 05:11:00,23.0,19.0,-100.00,NNE,32,0.0,3.0,85,0.00,,,0.00,1.000000,,2013-02-20 13:11:00,
2013-02-20 05:22:00,23.0,19.0,-100.00,NNE,32,0.0,3.0,85,0.00,,,0.00,1.000000,,2013-02-20 13:22:00,
2013-02-20 06:52:00,23.0,19.0,-100.00,ENE,63,1.0,3.0,85,-99.99,,,0.00,1.000000,,2013-02-20 14:52:00,
2013-02-20 07:01:00,23.0,19.0,-100.00,ENE,63,1.0,3.0,85,-99.99,,,0.00,1.000000,,2013-02-20 15:01:00,
2013-02-20 07:11:00,23.0,19.0,-100.00,ENE,63,1.0,3.0,85,-99.99,,,0.00,1.000000,,2013-02-20 15:11:00,
2013-02-20 07:22:00,23.0,19.0,-100.00,ENE,63,1.0,3.0,85,-99.99,,,0.00,1.000000,,2013-02-20 15:22:00,
2013-02-20 07:52:00,20.0,18.0,-100.00,SSW,204,3.0,5.0,91,0.00,,,0.00,5.000000,,2013-02-20 15:52:00,
2013-02-20 08:01:00,20.0,18.0,-100.00,SSW,204,3.0,5.0,91,0.00,,,0.00,5.000000,,2013-02-20 16:01:00,
2013-02-20 08:11:00,20.0,18.0,-100.00,SSW,204,3.0,5.0,91,0.00,,,0.00,5.000000,,2013-02-20 16:11:00,
2013-02-20 08:21:00,20.0,18.0,-100.00,SSW,204,3.0,5.0,91,0.00,,,0.00,5.000000,,2013-02-20 16:21:00,
2013-02-20 08:52:00,26.0,21.0,-100.00,SSE,161,3.0,5.0,81,0.00,,,0.00,37.000000,,2013-02-20 16:52:00,
2013-02-20 09:01:00,26.0,21.0,-100.00,SSE,161,3.0,5.0,81,0.00,,,0.00,37.000000,,2013-02-20 17:01:00,
2013-02-20 09:21:00,26.0,21.0,-100.00,SSE,161,3.0,5.0,81,0.00,,,0.00,37.000000,,2013-02-20 17:21:00,
2013-02-20 09:52:00,31.0,20.0,-100.00,SSW,211,7.0,11.0,64,0.00,,,0.00,235.000000,,2013-02-20 17:52:00,
2013-02-20 10:02:00,31.0,20.0,-100.00,SSW,211,7.0,11.0,64,0.00,,,0.00,235.000000,,2013-02-20 18:02:00,
2013-02-20 10:11:00,31.0,20.0,-100.00,SSW,211,7.0,11.0,64,0.00,,,0.00,235.000000,,2013-02-20 18:11:00,
2013-02-20 10:21:00,31.0,20.0,-100.00,SSW,211,7.0,11.0,64,0.00,,,0.00,235.000000,,2013-02-20 18:21:00,
2013-02-20 10:52:00,32.0,19.0,-100.00,South,191,5.0,11.0,58,0.00,,,0.00,291.000000,,2013-02-20 18:52:00,
2013-02-20 11:01:00,32.0,19.0,-100.00,South,191,5.0,11.0,58,0.00,,,0.00,291.000000,,2013-02-20 19:01:00,
2013-02-20 11:11:00,32.0,19.0,-100.00,South,191,5.0,11.0,58,0.00,,,0.00,291.000000,,2013-02-20 19:11:00,
2013-02-20 11:21:00,32.0,19.0,-100.00,South,191,5.0,11.0,58,0.00,,,0.00,291.000000,,2013-02-20 19:21:00,
2013-02-20 11:52:00,36.0,19.0,-100.00,SSW,212,7.0,12.0,50,0.00,,,0.00,466.000000,,2013-02-20 19:52:00,
2013-02-20 12:01:00,36.0,19.0,-100.00,SSW,212,7.0,12.0,50,0.00,,,0.00,466.000000,,2013-02-20 20:01:00,
2013-02-20 12:11:00,36.0,19.0,-100.00,SSW,212,7.0,12.0,50,0.00,,,0.00,466.000000,,2013-02-20 20:11:00,
2013-02-20 12:21:00,36.0,19.0,-100.00,SSW,212,7.0,12.0,50,0.00,,,0.00,466.000000,,2013-02-20 20:21:00,
2013-02-20 12:51:00,38.0,18.0,-100.00,SSW,208,8.0,14.0,43,0.00,,,0.00,522.000000,,2013-02-20 20:51:00,
2013-02-20 13:01:00,38.0,18.0,-100.00,SSW,208,8.0,14.0,43,0.00,,,0.00,522.000000,,2013-02-20 21:01:00,
2013-02-20 13:11:00,38.0,18.0,-100.00,SSW,208,8.0,14.0,43,0.00,,,0.00,522.000000,,2013-02-20 21:11:00,
2013-02-20 13:21:00,38.0,18.0,-100.00,SSW,208,8.0,14.0,43,0.00,,,0.00,522.000000,,2013-02-20 21:21:00,
2013-02-20 13:52:00,39.0,18.0,-100.00,SW,227,9.0,18.0,43,0.00,,,0.00,520.000000,,2013-02-20 21:52:00,
2013-02-20 14:01:00,39.0,18.0,-100.00,SW,227,9.0,18.0,43,0.00,,,0.00,520.000000,,2013-02-20 22:01:00,
2013-02-20 14:11:00,39.0,18.0,-100.00,SW,227,9.0,18.0,43,0.00,,,0.00,520.000000,,2013-02-20 22:11:00,
2013-02-20 14:21:00,39.0,18.0,-100.00,SW,227,9.0,18.0,43,0.00,,,0.00,520.000000,,2013-02-20 22:21:00,
2013-02-20 14:43:00,35.0,17.0,-100.00,SSW,209,9.0,16.0,48,0.00,,,0.00,408.000000,,2013-02-20 22:43:00,
2013-02-20 14:51:00,35.0,17.0,-100.00,SSW,209,9.0,16.0,48,0.00,,,0.00,408.000000,,2013-02-20 22:51:00,
2013-02-20 15:01:00,35.0,17.0,-100.00,SSW,209,9.0,16.0,48,0.00,,,0.00,408.000000,,2013-02-20 23:01:00,
2013-02-20 15:12:00,35.0,17.0,-100.00,SSW,209,9.0,16.0,48,0.00,,,0.00,408.000000,,2013-02-20 23:12:00,
2013-02-20 15:21:00,35.0,17.0,-100.00,SSW,209,9.0,16.0,48,0.00,,,0.00,408.000000,,2013-02-20 23:21:00,
2013-02-20 15:52:00,36.0,18.0,-100.00,SSW,213,9.0,16.0,47,0.00,,,0.00,295.000000,,2013-02-20 23:52:00,
2013-02-20 16:02:00,36.0,18.0,-100.00,SSW,213,9.0,16.0,47,0.00,,,0.00,295.000000,,2013-02-21 00:02:00,
2013-02-20 16:11:00,36.0,18.0,-100.00,SSW,213,9.0,16.0,47,0.00,,,0.00,295.000000,,2013-02-21 00:11:00,
2013-02-20 16:21:00,36.0,18.0,-100.00,SSW,213,9.0,16.0,47,0.00,,,0.00,295.000000,,2013-02-21 00:21:00,
2013-02-20 16:52:00,32.0,17.0,-100.00,SW,219,7.0,15.0,54,0.00,,,0.00,159.000000,,2013-02-21 00:52:00,
2013-02-20 17:01:00,32.0,17.0,-100.00,SW,219,7.0,15.0,54,0.00,,,0.00,159.000000,,2013-02-21 01:01:00,
2013-02-20 17:11:00,32.0,17.0,-100.00,SW,219,7.0,15.0,54,0.00,,,0.00,159.000000,,2013-02-21 01:11:00,
2013-02-20 17:21:00,32.0,17.0,-100.00,SW,219,7.0,15.0,54,0.00,,,0.00,159.000000,,2013-02-21 01:21:00,
2013-02-20 17:42:00,30.0,18.0,-100.00,SW,230,7.0,17.0,60,0.00,,,0.00,42.000000,,2013-02-21 01:42:00,
2013-02-20 17:52:00,30.0,18.0,-100.00,SW,230,7.0,17.0,60,0.00,,,0.00,42.000000,,2013-02-21 01:52:00,
2013-02-20 18:01:00,30.0,18.0,-100.00,SW,230,7.0,17.0,60,0.00,,,0.00,42.000000,,2013-02-21 02:01:00,
2013-02-20 18:11:00,30.0,18.0,-100.00,SW,230,7.0,17.0,60,0.00,,,0.00,42.000000,,2013-02-21 02:11:00,
2013-02-20 18:21:00,30.0,18.0,-100.00,SW,230,7.0,17.0,60,0.00,,,0.00,42.000000,,2013-02-21 02:21:00,
2013-02-20 19:01:00,29.0,17.0,-100.00,SW,216,5.0,12.0,60,0.00,,,0.00,2.000000,,2013-02-21 03:01:00,
2013-02-20 19:11:00,29.0,17.0,-100.00,SW,216,5.0,12.0,60,0.00,,,0.00,2.000000,,2013-02-21 03:11:00,
2013-02-20 19:21:00,29.0,17.0,-100.00,SW,216,5.0,12.0,60,0.00,,,0.00,2.000000,,2013-02-21 03:21:00,
2013-02-20 19:52:00,28.0,17.0,-100.00,SSW,205,5.0,12.0,64,0.00,,,0.00,1.000000,,2013-02-21 03:52:00,
2013-02-20 20:01:00,28.0,17.0,-100.00,SSW,205,5.0,12.0,64,0.00,,,0.00,1.000000,,2013-02-21 04:01:00,
2013-02-20 20:11:00,28.0,17.0,-100.00,SSW,205,5.0,12.0,64,0.00,,,0.00,1.000000,,2013-02-21 04:11:00,
2013-02-20 20:21:00,28.0,17.0,-100.00,SSW,205,5.0,12.0,64,0.00,,,0.00,1.000000,,2013-02-21 04:21:00,
2013-02-20 20:52:00,28.0,18.0,-100.00,SW,225,4.0,13.0,65,0.00,,,0.00,1.000000,,2013-02-21 04:52:00,
2013-02-20 21:02:00,28.0,18.0,-100.00,SW,225,4.0,13.0,65,0.00,,,0.00,1.000000,,2013-02-21 05:02:00,
2013-02-20 21:12:00,28.0,18.0,-100.00,SW,225,4.0,13.0,65,0.00,,,0.00,1.000000,,2013-02-21 05:12:00,
2013-02-20 21:21:00,28.0,18.0,-100.00,SW,225,4.0,13.0,65,0.00,,,0.00,1.000000,,2013-02-21 05:21:00,
2013-02-20 21:59:00,27.0,19.0,-100.00,SSW,204,8.0,11.0,71,0.00,,,0.00,1.000000,,2013-02-21 05:59:00,
2013-02-20 22:11:00,27.0,19.0,-100.00,SSW,204,8.0,11.0,71,0.00,,,0.00,1.000000,,2013-02-21 06:11:00,
2013-02-20 22:21:00,27.0,19.0,-100.00,SSW,204,8.0,11.0,71,0.00,,,0.00,1.000000,,2013-02-21 06:21:00,
2013-02-20 22:51:00,26.0,22.0,-100.00,SSW,213,6.0,11.0,83,0.00,,,0.00,1.000000,,2013-02-21 06:51:00,
2013-02-20 23:01:00,26.0,22.0,-100.00,SSW,213,6.0,11.0,83,0.00,,,0.00,1.000000,,2013-02-21 07:01:00,
2013-02-20 23:11:00,26.0,22.0,-100.00,SSW,213,6.0,11.0,83,0.00,,,0.00,1.000000,,2013-02-21 07:11:00,
2013-02-20 23:21:00,26.0,22.0,-100.00,SSW,213,6.0,11.0,83,0.00,,,0.00,1.000000,,2013-02-21 07:21:00,
2013-02-20 23:52:00,25.0,23.0,-100.00,SSW,194,7.0,10.0,93,0.00,,,0.00,1.000000,,2013-02-21 07:52:00,